{"data":{"norad_id":62332,"intl_designator":"2024-240K","name":"HULIANWANG DIGUI-10","alt_names":[],"object_type":"PAYLOAD","status":"ACTIVE","operator":null,"country":"PRC","launch_date":"2024-12-16","launch_site_code":"WSC","launch_vehicle":null,"mission":null,"orbit_class":"UNKNOWN","rcs_meters":null,"size_class":null,"mass_kg":null,"dimensions":null,"purposes":[],"wikipedia_slug":null,"has_3d_model":false,"image_url":null,"decayed_at":null,"tle_current":{"epoch":"2026-09-22T22:10:23.897280Z","epoch_age_seconds":102627,"freshness":"FRESH","line1":"1 62332U 24240K   26265.92388770  .00000061  00000+0  10901-3 0  9993","line2":"2 62332  86.5012 310.4875 0001579  87.6493 272.4822 13.24413729 85575","mean_motion":13.24413729,"eccentricity":0.0001579,"inclination_deg":86.5012,"raan_deg":310.4875,"arg_perigee_deg":87.6493,"mean_anomaly_deg":272.4822,"bstar":0.00010901,"rev_number":8557,"period_min":108.72735373162,"perigee_km":1166.7165007284,"apogee_km":1169.0995417461,"semimajor_km":7546.0450212372,"source":"CELESTRAK","updated_at":"2026-09-23T09:00:21.386402Z"}}}